QPF
0.07 0.08 0.07 0.07 0.04 0.03 0.05 0.07 0.06 0.07 0.04 0.02 0.02 0.00 0.01 0.01 0.01 0.02 0.02 0.00 0.00 0.00 0.01 0.01 0.00 0.00 0.00 0.00 0.01 0.01 0.01 0.01 0.01 0.00 0.00 0.00 0.00 0.00 0.00 0.00 0.00 0.00 0.00
0.05 0.06 0.05 0.06 0.04 0.04 0.05 0.06 0.05 0.05 0.05 0.05 0.05 0.01 0.01 0.02 0.02 0.03 0.03 0.01 0.00 0.01 0.00 0.01 0.01 0.00 0.01 0.01 0.01 0.01 0.01 0.01 0.01 0.01 0.00 0.00 0.00 0.00 0.00 0.00 0.00 0.00 0.00
0.05 0.04 0.05 0.04 0.04 0.04 0.05 0.09 0.05 0.05 0.06 0.06 0.06 0.03 0.02 0.01 0.02 0.03 0.03 0.03 0.01 0.00 0.00 0.01 0.01 0.01 0.01 0.01 0.00 0.01 0.01 0.01 0.01 0.00 0.00 0.00 0.00 0.00 0.00 0.00 0.00 0.00 0.00
0.03 0.03 0.03 0.03 0.03 0.02 0.03 0.06 0.05 0.07 0.08 0.07 0.05 0.04 0.03 0.02 0.01 0.02 0.02 0.03 0.05 0.03 0.01 0.00 0.01 0.01 0.01 0.01 0.01 0.01 0.00 0.00 0.01 0.00 0.00 0.00 0.00 0.00 0.01 0.00 0.00 0.00 0.00
0.02 0.02 0.03 0.05 0.04 0.03 0.03 0.03 0.06 0.06 0.07 0.07 0.03 0.03 0.02 0.01 0.01 0.01 0.01 0.01 0.02 0.02 0.02 0.01 0.00 0.00 0.00 0.01 0.01 0.01 0.01 0.01 0.00 0.00 0.01 0.01 0.01 0.01 0.01 0.01 0.01 0.01 0.01
0.01 0.02 0.03 0.04 0.03 0.04 0.06 0.07 0.08 0.07 0.07 0.05 0.04 0.04 0.03 0.02 0.02 0.01 0.01 0.01 0.01 0.01 0.01 0.02 0.01 0.01 0.00 0.00 0.00 0.01 0.01 0.01 0.01 0.01 0.01 0.01 0.01 0.01 0.01 0.01 0.00 0.00 0.01
0.02 0.03 0.05 0.07 0.04 0.05 0.05 0.06 0.07 0.07 0.05 0.04 0.09 0.08 0.06 0.03 0.02 0.02 0.01 0.02 0.02 0.01 0.01 0.02 0.02 0.03 0.02 0.00 0.00 0.00 0.01 0.01 0.00 0.01 0.01 0.01 0.01 0.01 0.01 0.01 0.01 0.00 0.00
0.02 0.02 0.05 0.06 0.05 0.07 0.07 0.09 0.09 0.08 0.06 0.04 0.07 0.12 0.13 0.10 0.06 0.02 0.02 0.02 0.02 0.02 0.01 0.01 0.01 0.03 0.02 0.02 0.01 0.01 0.01 0.01 0.00 0.00 0.01 0.00 0.00 0.00 0.00 0.01 0.01 0.00 0.00
0.02 0.03 0.05 0.04 0.06 0.04 0.07 0.08 0.08 0.06 0.06 0.05 0.03 0.07 0.12 0.12 0.09 0.05 0.02 0.01 0.02 0.02 0.02 0.01 0.01 0.03 0.03 0.04 0.04 0.02 0.01 0.01 0.01 0.00 0.01 0.01 0.00 0.00 0.00 0.00 0.00 0.00 0.00
0.04 0.03 0.03 0.04 0.05 0.05 0.07 0.04 0.05 0.07 0.06 0.04 0.04 0.03 0.04 0.07 0.09 0.09 0.05 0.02 0.02 0.02 0.02 0.01 0.01 0.03 0.03 0.03 0.04 0.02 0.01 0.01 0.00 0.00 0.01 0.01 0.01 0.00 0.00 0.00 0.00 0.00 0.00
0.07 0.06 0.05 0.06 0.05 0.06 0.06 0.05 0.09 0.06 0.05 0.04 0.03 0.04 0.04 0.05 0.05 0.08 0.10 0.06 0.05 0.02 0.01 0.01 0.01 0.01 0.01 0.04 0.03 0.02 0.01 0.01 0.00 0.00 0.00 0.00 0.01 0.01 0.01 0.01 0.01 0.01 0.00
0.10 0.09 0.09 0.09 0.08 0.09 0.09 0.06 0.06 0.04 0.05 0.06 0.06 0.05 0.05 0.05 0.05 0.06 0.07 0.07 0.06 0.03 0.01 0.01 0.01 0.01 0.01 0.02 0.03 0.02 0.01 0.01 0.01 0.00 0.00 0.00 0.01 0.01 0.01 0.01 0.01 0.01 0.01
0.08 0.10 0.13 0.14 0.13 0.13 0.09 0.08 0.06 0.06 0.06 0.06 0.07 0.05 0.03 0.04 0.04 0.04 0.05 0.04 0.05 0.02 0.01 0.01 0.00 0.01 0.01 0.00 0.01 0.01 0.01 0.01 0.01 0.01 0.00 0.00 0.00 0.00 0.00 0.00 0.00 0.01 0.01
0.09 0.11 0.12 0.10 0.09 0.11 0.09 0.10 0.08 0.07 0.07 0.05 0.05 0.06 0.05 0.03 0.02 0.03 0.03 0.04 0.05 0.05 0.04 0.02 0.02 0.01 0.01 0.01 0.02 0.02 0.01 0.01 0.01 0.00 0.00 0.00 0.00 0.00 0.00 0.00 0.00 0.00 0.00
0.10 0.13 0.13 0.13 0.10 0.10 0.11 0.11 0.10 0.09 0.08 0.06 0.05 0.07 0.05 0.03 0.03 0.02 0.02 0.03 0.05 0.06 0.06 0.04 0.02 0.01 0.01 0.02 0.05 0.03 0.03 0.02 0.01 0.00 0.00 0.00 0.00 0.00 0.00 0.00 0.00 0.00 0.00
0.11 0.11 0.12 0.13 0.12 0.13 0.13 0.15 0.12 0.11 0.10 0.08 0.07 0.09 0.05 0.03 0.04 0.03 0.03 0.04 0.05 0.05 0.05 0.03 0.02 0.01 0.02 0.02 0.04 0.04 0.05 0.03 0.01 0.01 0.00 0.00 0.00 0.00 0.00 0.00 0.00 0.00 0.00
0.12 0.10 0.11 0.13 0.14 0.13 0.14 0.15 0.12 0.12 0.10 0.09 0.08 0.07 0.05 0.05 0.06 0.05 0.04 0.04 0.05 0.05 0.06 0.04 0.04 0.05 0.07 0.06 0.05 0.06 0.08 0.05 0.02 0.01 0.01 0.01 0.00 0.00 0.00 0.00 0.00 0.00 0.00
0.15 0.12 0.13 0.14 0.12 0.12 0.14 0.14 0.12 0.14 0.12 0.11 0.10 0.10 0.07 0.07 0.09 0.07 0.07 0.06 0.06 0.08 0.08 0.08 0.08 0.07 0.06 0.06 0.05 0.06 0.06 0.05 0.02 0.01 0.01 0.01 0.00 0.00 0.00 0.00 0.00 0.00 0.00
0.15 0.15 0.13 0.13 0.11 0.12 0.14 0.16 0.15 0.15 0.13 0.12 0.13 0.13 0.09 0.09 0.09 0.09 0.07 0.07 0.07 0.07 0.08 0.08 0.07 0.07 0.07 0.07 0.07 0.05 0.02 0.02 0.01 0.01 0.01 0.01 0.00 0.00 0.00 0.00 0.00 0.00 0.00
0.13 0.14 0.13 0.11 0.11 0.13 0.15 0.17 0.17 0.16 0.16 0.16 0.15 0.14 0.12 0.14 0.15 0.14 0.11 0.10 0.10 0.10 0.10 0.09 0.07 0.07 0.08 0.06 0.06 0.05 0.04 0.03 0.02 0.01 0.01 0.01 0.01 0.01 0.01 0.01 0.01 0.01 0.01
0.11 0.13 0.13 0.12 0.11 0.12 0.12 0.15 0.16 0.16 0.20 0.20 0.18 0.17 0.16 0.16 0.14 0.12 0.09 0.10 0.12 0.12 0.11 0.11 0.10 0.10 0.09 0.10 0.09 0.08 0.08 0.06 0.04 0.03 0.03 0.02 0.02 0.02 0.02 0.02 0.02 0.02 0.01
0.11 0.13 0.14 0.14 0.13 0.11 0.15 0.18 0.20 0.24 0.25 0.24 0.22 0.18 0.15 0.12 0.10 0.08 0.07 0.07 0.08 0.10 0.10 0.11 0.10 0.10 0.09 0.10 0.10 0.09 0.08 0.09 0.08 0.06 0.06 0.06 0.04 0.05 0.04 0.03 0.04 0.03 0.03
0.14 0.15 0.17 0.17 0.17 0.20 0.21 0.19 0.19 0.20 0.23 0.24 0.22 0.20 0.15 0.11 0.11 0.10 0.10 0.11 0.12 0.13 0.11 0.09 0.10 0.10 0.10 0.10 0.10 0.08 0.08 0.09 0.08 0.07 0.09 0.08 0.06 0.07 0.05 0.04 0.04 0.03 0.03
0.14 0.15 0.18 0.18 0.21 0.22 0.21 0.18 0.18 0.16 0.18 0.20 0.18 0.17 0.16 0.14 0.13 0.14 0.13 0.15 0.16 0.16 0.15 0.12 0.11 0.10 0.09 0.08 0.08 0.07 0.07 0.07 0.06 0.06 0.09 0.08 0.05 0.05 0.04 0.05 0.05 0.05 0.04
0.15 0.18 0.21 0.21 0.21 0.22 0.25 0.23 0.22 0.20 0.21 0.20 0.19 0.17 0.14 0.12 0.14 0.15 0.16 0.16 0.13 0.11 0.10 0.11 0.09 0.08 0.07 0.06 0.06 0.06 0.06 0.06 0.06 0.06 0.08 0.09 0.07 0.07 0.05 0.04 0.04 0.04 0.03
0.16 0.19 0.19 0.19 0.19 0.19 0.21 0.20 0.19 0.22 0.23 0.20 0.18 0.15 0.14 0.14 0.15 0.14 0.13 0.11 0.09 0.09 0.09 0.09 0.09 0.08 0.07 0.07 0.07 0.06 0.07 0.07 0.07 0.07 0.06 0.07 0.06 0.05 0.05 0.04 0.04 0.04 0.03
MSLP
1015.43 1015.67 1015.84 1015.99 1016.14 1016.31 1016.50 1016.70 1016.87 1017.01 1017.09 1017.15 1017.20 1017.28 1017.44 1017.71 1018.10 1018.59 1019.15 1019.71 1020.25 1020.70 1021.06 1021.31 1021.49 1021.61 1021.70 1021.80 1021.90 1022.01 1022.13 1022.24 1022.34 1022.43 1022.51 1022.61 1022.72 1022.85 1023.01 1023.17 1023.32 1023.46 1023.58
1015.22 1015.48 1015.67 1015.83 1015.99 1016.16 1016.36 1016.56 1016.76 1016.93 1017.07 1017.18 1017.29 1017.42 1017.61 1017.87 1018.21 1018.64 1019.11 1019.59 1020.05 1020.47 1020.82 1021.11 1021.34 1021.52 1021.68 1021.83 1021.97 1022.09 1022.19 1022.27 1022.35 1022.41 1022.49 1022.59 1022.72 1022.88 1023.06 1023.24 1023.41 1023.55 1023.66
1014.96 1015.23 1015.45 1015.64 1015.83 1016.03 1016.25 1016.48 1016.71 1016.92 1017.11 1017.29 1017.45 1017.62 1017.83 1018.07 1018.36 1018.69 1019.05 1019.42 1019.79 1020.14 1020.46 1020.76 1021.03 1021.28 1021.52 1021.73 1021.91 1022.06 1022.18 1022.26 1022.32 1022.38 1022.45 1022.56 1022.70 1022.88 1023.08 1023.27 1023.45 1023.60 1023.72
1014.67 1014.96 1015.21 1015.44 1015.68 1015.92 1016.18 1016.44 1016.71 1016.97 1017.21 1017.44 1017.66 1017.87 1018.08 1018.30 1018.53 1018.77 1019.01 1019.26 1019.51 1019.77 1020.04 1020.32 1020.62 1020.92 1021.22 1021.50 1021.75 1021.95 1022.09 1022.20 1022.27 1022.33 1022.41 1022.52 1022.67 1022.85 1023.05 1023.26 1023.44 1023.59 1023.71
1014.36 1014.66 1014.95 1015.24 1015.53 1015.82 1016.13 1016.43 1016.74 1017.04 1017.34 1017.62 1017.88 1018.13 1018.36 1018.56 1018.73 1018.88 1019.01 1019.14 1019.27 1019.43 1019.62 1019.87 1020.16 1020.49 1020.84 1021.18 1021.49 1021.75 1021.94 1022.08 1022.18 1022.25 1022.34 1022.46 1022.61 1022.79 1022.99 1023.18 1023.36 1023.51 1023.62
1014.04 1014.37 1014.70 1015.04 1015.39 1015.74 1016.08 1016.43 1016.77 1017.11 1017.44 1017.77 1018.07 1018.36 1018.60 1018.80 1018.94 1019.02 1019.06 1019.08 1019.10 1019.15 1019.26 1019.45 1019.71 1020.04 1020.41 1020.79 1021.15 1021.46 1021.71 1021.89 1022.03 1022.13 1022.24 1022.36 1022.50 1022.67 1022.85 1023.04 1023.20 1023.33 1023.44
1013.74 1014.08 1014.46 1014.85 1015.25 1015.65 1016.03 1016.41 1016.77 1017.13 1017.49 1017.84 1018.19 1018.50 1018.78 1018.99 1019.12 1019.17 1019.15 1019.09 1019.02 1018.97 1018.99 1019.09 1019.30 1019.60 1019.96 1020.35 1020.74 1021.09 1021.39 1021.62 1021.79 1021.93 1022.06 1022.19 1022.33 1022.48 1022.65 1022.81 1022.95 1023.07 1023.16
1013.46 1013.82 1014.23 1014.67 1015.11 1015.55 1015.96 1016.34 1016.72 1017.08 1017.45 1017.82 1018.19 1018.54 1018.85 1019.09 1019.24 1019.28 1019.24 1019.13 1018.99 1018.86 1018.79 1018.81 1018.94 1019.17 1019.49 1019.86 1020.25 1020.62 1020.95 1021.22 1021.45 1021.62 1021.78 1021.92 1022.06 1022.21 1022.35 1022.49 1022.61 1022.72 1022.80
1013.19 1013.57 1014.01 1014.48 1014.96 1015.41 1015.83 1016.22 1016.58 1016.93 1017.30 1017.67 1018.06 1018.44 1018.78 1019.06 1019.25 1019.32 1019.28 1019.16 1018.98 1018.79 1018.64 1018.56 1018.60 1018.75 1018.99 1019.31 1019.68 1020.04 1020.39 1020.70 1020.96 1021.18 1021.37 1021.54 1021.69 1021.84 1021.97 1022.09 1022.20 1022.30 1022.39
1012.90 1013.30 1013.77 1014.26 1014.76 1015.22 1015.64 1016.01 1016.36 1016.69 1017.03 1017.40 1017.79 1018.19 1018.57 1018.89 1019.12 1019.23 1019.22 1019.11 1018.92 1018.69 1018.48 1018.32 1018.26 1018.31 1018.47 1018.72 1019.03 1019.37 1019.72 1020.05 1020.35 1020.62 1020.85 1021.05 1021.22 1021.38 1021.52 1021.64 1021.75 1021.85 1021.94
1012.55 1012.98 1013.47 1013.98 1014.49 1014.95 1015.36 1015.72 1016.04 1016.35 1016.67 1017.02 1017.41 1017.81 1018.21 1018.57 1018.84 1019.00 1019.04 1018.95 1018.77 1018.53 1018.27 1018.06 1017.91 1017.86 1017.92 1018.08 1018.33 1018.63 1018.97 1019.31 1019.64 1019.95 1020.23 1020.47 1020.68 1020.86 1021.01 1021.15 1021.26 1021.37 1021.48
1012.12 1012.57 1013.08 1013.61 1014.13 1014.59 1015.00 1015.35 1015.65 1015.94 1016.24 1016.57 1016.94 1017.34 1017.75 1018.12 1018.43 1018.64 1018.72 1018.68 1018.52 1018.29 1018.01 1017.75 1017.54 1017.41 1017.38 1017.46 1017.63 1017.88 1018.19 1018.53 1018.89 1019.23 1019.55 1019.84 1020.08 1020.29 1020.47 1020.62 1020.74 1020.86 1020.99
1011.60 1012.08 1012.61 1013.15 1013.67 1014.15 1014.56 1014.90 1015.20 1015.48 1015.77 1016.08 1016.43 1016.82 1017.22 1017.60 1017.93 1018.17 1018.29 1018.29 1018.18 1017.97 1017.71 1017.43 1017.17 1016.98 1016.88 1016.88 1016.98 1017.17 1017.45 1017.77 1018.13 1018.50 1018.85 1019.17 1019.45 1019.69 1019.88 1020.04 1020.18 1020.31 1020.45
1011.01 1011.51 1012.05 1012.61 1013.15 1013.63 1014.05 1014.42 1014.73 1015.01 1015.29 1015.59 1015.92 1016.29 1016.67 1017.04 1017.38 1017.64 1017.80 1017.85 1017.79 1017.63 1017.39 1017.12 1016.86 1016.63 1016.47 1016.40 1016.43 1016.56 1016.79 1017.08 1017.43 1017.79 1018.15 1018.49 1018.79 1019.04 1019.24 1019.40 1019.54 1019.68 1019.82
1010.40 1010.92 1011.48 1012.04 1012.59 1013.09 1013.53 1013.92 1014.26 1014.56 1014.84 1015.14 1015.45 1015.79 1016.15 1016.51 1016.83 1017.11 1017.30 1017.40 1017.39 1017.29 1017.11 1016.87 1016.62 1016.37 1016.18 1016.06 1016.02 1016.09 1016.25 1016.49 1016.79 1017.13 1017.47 1017.79 1018.08 1018.32 1018.52 1018.67 1018.80 1018.93 1019.06
1009.87 1010.39 1010.94 1011.51 1012.06 1012.58 1013.05 1013.46 1013.83 1014.15 1014.45 1014.75 1015.05 1015.37 1015.70 1016.03 1016.34 1016.62 1016.83 1016.98 1017.03 1016.99 1016.88 1016.69 1016.47 1016.23 1016.02 1015.85 1015.76 1015.75 1015.83 1015.99 1016.22 1016.49 1016.78 1017.06 1017.31 1017.53 1017.69 1017.82 1017.93 1018.04 1018.16
1009.50 1010.01 1010.55 1011.10 1011.65 1012.17 1012.65 1013.09 1013.48 1013.83 1014.14 1014.44 1014.73 1015.03 1015.33 1015.63 1015.93 1016.20 1016.44 1016.62 1016.73 1016.77 1016.72 1016.59 1016.41 1016.20 1015.97 1015.77 1015.62 1015.52 1015.51 1015.57 1015.71 1015.89 1016.09 1016.30 1016.49 1016.65 1016.77 1016.86 1016.94 1017.02 1017.12
1009.37 1009.85 1010.36 1010.89 1011.41 1011.91 1012.39 1012.83 1013.23 1013.59 1013.91 1014.21 1014.49 1014.77 1015.05 1015.33 1015.61 1015.88 1016.13 1016.35 1016.51 1016.60 1016.61 1016.55 1016.42 1016.22 1016.00 1015.76 1015.55 1015.37 1015.26 1015.21 1015.23 1015.30 1015.40 1015.51 1015.62 1015.71 1015.78 1015.83 1015.87 1015.93 1016.01
1009.53 1009.96 1010.42 1010.90 1011.37 1011.84 1012.29 1012.71 1013.10 1013.46 1013.78 1014.07 1014.34 1014.60 1014.86 1015.12 1015.39 1015.65 1015.91 1016.15 1016.35 1016.48 1016.55 1016.54 1016.44 1016.27 1016.04 1015.78 1015.51 1015.26 1015.05 1014.89 1014.79 1014.74 1014.73 1014.75 1014.77 1014.79 1014.80 1014.81 1014.82 1014.85 1014.92
1009.96 1010.34 1010.74 1011.15 1011.56 1011.97 1012.37 1012.75 1013.10 1013.44 1013.74 1014.02 1014.27 1014.52 1014.76 1015.01 1015.26 1015.52 1015.78 1016.02 1016.24 1016.40 1016.50 1016.52 1016.46 1016.30 1016.08 1015.80 1015.49 1015.18 1014.88 1014.63 1014.42 1014.27 1014.15 1014.07 1014.01 1013.97 1013.93 1013.90 1013.88 1013.90 1013.95
1010.65 1010.97 1011.30 1011.63 1011.96 1012.29 1012.61 1012.93 1013.24 1013.53 1013.80 1014.06 1014.31 1014.54 1014.77 1015.00 1015.25 1015.49 1015.74 1015.97 1016.19 1016.36 1016.47 1016.51 1016.46 1016.32 1016.10 1015.81 1015.48 1015.13 1014.78 1014.46 1014.17 1013.93 1013.74 1013.58 1013.45 1013.35 1013.27 1013.21 1013.18 1013.17 1013.21
1011.51 1011.77 1012.03 1012.28 1012.53 1012.77 1013.01 1013.26 1013.50 1013.75 1013.99 1014.22 1014.46 1014.68 1014.91 1015.13 1015.35 1015.58 1015.81 1016.02 1016.21 1016.37 1016.47 1016.50 1016.46 1016.33 1016.12 1015.85 1015.52 1015.16 1014.79 1014.43 1014.10 1013.80 1013.55 1013.35 1013.17 1013.03 1012.92 1012.84 1012.78 1012.76 1012.77
1012.50 1012.70 1012.89 1013.07 1013.24 1013.39 1013.55 1013.72 1013.90 1014.09 1014.30 1014.52 1014.74 1014.96 1015.18 1015.40 1015.61 1015.81 1016.00 1016.17 1016.32 1016.44 1016.52 1016.54 1016.49 1016.37 1016.19 1015.93 1015.63 1015.29 1014.93 1014.58 1014.24 1013.93 1013.66 1013.42 1013.22 1013.06 1012.92 1012.81 1012.74 1012.68 1012.66
1013.53 1013.69 1013.83 1013.95 1014.04 1014.13 1014.21 1014.31 1014.43 1014.58 1014.76 1014.96 1015.17 1015.39 1015.61 1015.81 1016.00 1016.17 1016.32 1016.45 1016.55 1016.62 1016.65 1016.65 1016.60 1016.49 1016.33 1016.12 1015.86 1015.57 1015.25 1014.93 1014.61 1014.31 1014.04 1013.80 1013.59 1013.40 1013.25 1013.12 1013.01 1012.91 1012.84
1014.58 1014.71 1014.81 1014.88 1014.92 1014.95 1014.97 1015.01 1015.09 1015.20 1015.35 1015.53 1015.74 1015.95 1016.16 1016.36 1016.52 1016.66 1016.76 1016.83 1016.87 1016.89 1016.88 1016.85 1016.79 1016.69 1016.57 1016.40 1016.20 1015.97 1015.72 1015.45 1015.17 1014.90 1014.64 1014.40 1014.18 1013.99 1013.81 1013.65 1013.50 1013.35 1013.22
1015.61 1015.72 1015.80 1015.84 1015.85 1015.83 1015.81 1015.81 1015.84 1015.91 1016.04 1016.21 1016.40 1016.61 1016.81 1016.98 1017.12 1017.22 1017.27 1017.29 1017.28 1017.24 1017.19 1017.13 1017.06 1016.98 1016.89 1016.77 1016.63 1016.46 1016.27 1016.05 1015.82 1015.58 1015.34 1015.11 1014.89 1014.68 1014.47 1014.28 1014.08 1013.88 1013.67
Thickness
5761 5758 5757 5756 5755 5753 5752 5751 5751 5751 5751 5751 5751 5750 5750 5748 5745 5740 5735 5733 5731 5729 5728 5726 5725 5724 5722 5721 5720 5719 5718 5716 5715 5714 5713 5712 5710 5709 5708 5707 5707 5705 5704
5761 5759 5757 5757 5756 5755 5754 5752 5751 5751 5750 5750 5749 5749 5749 5747 5745 5740 5736 5733 5731 5730 5728 5726 5725 5724 5723 5722 5720 5719 5718 5716 5715 5713 5712 5711 5710 5709 5708 5707 5707 5706 5704
5761 5759 5758 5756 5756 5755 5753 5752 5751 5750 5750 5749 5748 5749 5748 5746 5745 5742 5738 5735 5732 5730 5729 5727 5726 5724 5723 5722 5721 5720 5718 5717 5715 5714 5713 5711 5710 5709 5708 5708 5707 5706 5705
5760 5759 5758 5757 5756 5755 5753 5751 5751 5749 5749 5747 5747 5748 5747 5746 5745 5743 5741 5738 5735 5733 5730 5728 5727 5726 5725 5723 5722 5721 5719 5718 5716 5715 5713 5712 5711 5710 5709 5708 5707 5706 5705
5760 5758 5758 5757 5756 5755 5753 5752 5750 5749 5746 5746 5746 5747 5747 5746 5745 5745 5744 5741 5738 5736 5733 5731 5729 5728 5726 5725 5724 5722 5721 5719 5718 5716 5715 5713 5712 5711 5710 5709 5708 5707 5706
5759 5758 5757 5756 5755 5754 5752 5751 5749 5748 5747 5746 5747 5746 5747 5747 5746 5746 5745 5744 5742 5740 5737 5735 5732 5730 5728 5727 5726 5724 5723 5721 5720 5718 5717 5715 5714 5712 5711 5710 5709 5708 5707
5758 5757 5757 5755 5754 5753 5752 5750 5748 5746 5745 5747 5743 5740 5744 5747 5746 5746 5745 5745 5744 5743 5741 5738 5735 5733 5731 5729 5727 5726 5725 5723 5721 5720 5718 5717 5715 5714 5713 5711 5710 5709 5708
5758 5757 5755 5754 5752 5751 5750 5750 5748 5744 5744 5745 5740 5734 5731 5734 5741 5747 5746 5745 5745 5744 5742 5741 5739 5737 5735 5732 5730 5728 5727 5725 5724 5722 5720 5719 5717 5716 5715 5713 5712 5710 5709
5757 5756 5755 5754 5752 5751 5748 5747 5747 5744 5741 5743 5744 5737 5728 5725 5732 5741 5745 5746 5745 5744 5744 5744 5742 5740 5738 5736 5734 5731 5728 5727 5725 5724 5722 5721 5719 5718 5716 5715 5713 5712 5711
5756 5755 5754 5753 5752 5751 5749 5747 5747 5746 5743 5740 5742 5743 5741 5737 5729 5729 5737 5744 5745 5745 5745 5745 5744 5742 5739 5738 5736 5733 5730 5728 5727 5725 5724 5722 5720 5719 5717 5716 5714 5713 5712
5756 5754 5753 5752 5751 5750 5749 5748 5747 5746 5744 5742 5741 5740 5739 5738 5737 5730 5727 5734 5740 5744 5746 5746 5745 5743 5741 5739 5737 5735 5732 5730 5728 5727 5725 5723 5721 5720 5718 5717 5715 5714 5713
5755 5754 5752 5751 5750 5749 5748 5747 5747 5745 5744 5743 5742 5742 5739 5736 5734 5733 5730 5731 5733 5740 5745 5747 5746 5745 5743 5741 5739 5738 5735 5732 5730 5728 5726 5724 5722 5720 5718 5717 5715 5714 5713
5754 5753 5753 5751 5749 5748 5747 5747 5745 5744 5743 5742 5741 5741 5742 5741 5740 5738 5734 5732 5733 5738 5742 5745 5746 5746 5744 5742 5741 5739 5736 5733 5730 5728 5726 5724 5722 5720 5718 5717 5715 5714 5712
5757 5756 5754 5751 5749 5748 5747 5746 5745 5744 5743 5742 5741 5740 5740 5741 5741 5740 5737 5733 5728 5730 5735 5739 5745 5745 5743 5742 5740 5737 5735 5733 5731 5728 5726 5724 5722 5720 5718 5716 5715 5713 5712
5758 5756 5753 5751 5749 5747 5746 5745 5743 5743 5742 5741 5740 5740 5738 5739 5740 5741 5740 5737 5729 5722 5724 5733 5738 5744 5742 5741 5739 5735 5733 5732 5730 5728 5726 5723 5721 5719 5718 5716 5714 5712 5710
5757 5754 5752 5750 5748 5746 5745 5743 5742 5742 5740 5739 5739 5738 5737 5737 5738 5738 5738 5737 5734 5728 5723 5731 5735 5739 5740 5739 5735 5733 5731 5730 5728 5726 5724 5723 5721 5718 5716 5714 5712 5710 5708
5755 5752 5750 5748 5746 5744 5743 5741 5740 5740 5738 5737 5737 5737 5735 5735 5734 5735 5735 5734 5732 5729 5723 5727 5732 5734 5734 5733 5731 5730 5728 5727 5726 5725 5723 5721 5719 5717 5715 5713 5710 5708 5706
5754 5751 5748 5746 5744 5742 5742 5741 5739 5739 5737 5735 5735 5734 5733 5733 5731 5731 5730 5729 5728 5728 5723 5719 5723 5726 5726 5728 5727 5725 5725 5725 5724 5723 5722 5720 5717 5715 5713 5711 5708 5706 5703
5751 5749 5746 5744 5742 5741 5740 5740 5738 5736 5735 5734 5733 5732 5731 5730 5727 5728 5727 5725 5725 5725 5723 5718 5717 5719 5720 5721 5721 5720 5720 5719 5719 5720 5719 5717 5714 5712 5710 5707 5705 5702 5699
5748 5746 5744 5742 5740 5739 5738 5737 5735 5734 5733 5733 5732 5731 5729 5728 5726 5724 5722 5721 5720 5718 5716 5714 5712 5712 5713 5715 5713 5710 5710 5711 5712 5713 5713 5712 5709 5707 5705 5703 5700 5697 5695
5745 5742 5740 5738 5737 5736 5735 5734 5733 5732 5730 5729 5728 5727 5727 5725 5724 5721 5719 5716 5714 5712 5709 5707 5705 5704 5704 5703 5702 5703 5700 5701 5703 5704 5704 5705 5703 5701 5699 5697 5695 5692 5689
5739 5738 5736 5733 5732 5732 5731 5730 5729 5728 5726 5724 5723 5722 5722 5720 5718 5715 5713 5711 5709 5705 5702 5699 5697 5695 5695 5695 5695 5694 5692 5690 5689 5694 5693 5693 5694 5692 5691 5690 5689 5687 5684
5734 5732 5730 5729 5726 5726 5726 5725 5724 5724 5722 5719 5718 5716 5715 5714 5711 5709 5706 5703 5700 5698 5695 5692 5689 5687 5686 5686 5685 5684 5683 5681 5680 5683 5683 5682 5683 5681 5682 5680 5679 5677 5674
5728 5726 5724 5723 5721 5719 5719 5719 5718 5717 5714 5712 5710 5709 5707 5705 5703 5700 5698 5694 5690 5688 5686 5684 5682 5679 5678 5678 5676 5675 5674 5674 5675 5674 5672 5669 5671 5670 5671 5669 5668 5666 5663
5723 5720 5718 5716 5714 5711 5711 5711 5710 5709 5706 5702 5700 5698 5697 5695 5693 5692 5689 5685 5681 5678 5677 5675 5673 5671 5669 5668 5666 5665 5663 5662 5660 5661 5661 5658 5658 5658 5659 5658 5656 5654 5652
5716 5713 5710 5708 5706 5704 5703 5703 5702 5701 5697 5693 5690 5687 5685 5684 5682 5682 5679 5675 5671 5668 5667 5666 5663 5661 5659 5658 5656 5653 5652 5649 5648 5647 5647 5645 5644 5643 5643 5645 5644 5641 5639